Weather History for Hayward, WI

Change the Weather History Date:

Friday, May 31, 2013

  Actual Average Record
Temperature  
Mean Temperature 67 °F -  
Max Temperature 79 °F 71 °F 86 °F (2006)
Min Temperature 54 °F 39 °F 32 °F (2003)
Cooling Degree Days 2    
Growing Degree Days 17 (Base 50)    
Moisture  
Dew Point 55 °F    
Average Humidity 72    
Maximum Humidity 97    
Minimum Humidity 36    
Precipitation  
Precipitation 0.36 in - - ()
Sea Level Pressure  
Sea Level Pressure 29.60 in    
Wind  
Wind Speed 10 mph (South)    
Max Wind Speed 18 mph    
Max Gust Speed 29 mph    
Visibility 9 miles    
Events Rain , Thunderstorm    
Averages and records for this station are not official NWS values.
T = Trace of Precipitation, MM = Missing Value Source: NWS Daily Summary

Daily Weather History Graph

Daily Weather History Graph

Search for Another Location

Airport:

Trip Planner

Search our weather history database for the weather conditions in past years. The results will help you decide how hot, cold, wet, or windy it might be!

Date:

Astronomy

May. 31, 2013 Rise Set
Actual Time 5:18 AM CDT 8:48 PM CDT
Civil Twilight 4:41 AM CDT 9:26 PM CDT
Nautical Twilight 3:52 AM CDT 10:15 PM CDT
Astronomical Twilight 2:48 AM CDT 11:20 PM CDT
Moon 1:07 AM CDT (5/31) 12:51 PM CDT (5/31)
Length of Visible Light 16h 44m
Length of Day
15h 29m
Waning Gibbous, 51% of the Moon is Illuminated
May 31
Waning Gibbous
May 31
Last Quarter
Jun 8
New
Jun 16
First Quarter
Jun 23
Full

Hourly Weather History & Observations

Time (CDT) Temp. Dew Point Humidity Pressure Visibility Wind Dir Wind Speed Gust Speed Precip Events Conditions
12:08 AM 66.2 °F 60.8 °F 83% 29.60 in 10.0 mi South 9.2 mph - N/A   Mostly Cloudy
12:31 AM 66.2 °F 59.0 °F 78% 29.59 in 10.0 mi South 13.8 mph 26.5 mph N/A   Overcast
12:53 AM 66.0 °F 59.0 °F 78% 29.59 in 10.0 mi South 11.5 mph 19.6 mph N/A   Mostly Cloudy
1:53 AM 66.0 °F 59.0 °F 78% 29.60 in 10.0 mi South 5.8 mph 17.3 mph N/A   Overcast
2:53 AM 64.9 °F 57.9 °F 78% 29.59 in 10.0 mi South 10.4 mph 16.1 mph N/A   Overcast
3:53 AM 64.9 °F 57.9 °F 78% 29.60 in 10.0 mi South 9.2 mph 17.3 mph N/A   Overcast
4:43 AM 64.4 °F 57.2 °F 77% 29.60 in 10.0 mi South 8.1 mph - 0.00 in Rain Light Rain
4:53 AM 63.0 °F 57.9 °F 84% 29.58 in 10.0 mi SSE 8.1 mph - 0.00 in Rain Light Rain
5:36 AM 62.6 °F 57.2 °F 82% 29.59 in 10.0 mi SSE 5.8 mph - N/A   Mostly Cloudy
5:53 AM 63.0 °F 57.9 °F 84% 29.59 in 10.0 mi SSE 8.1 mph - N/A   Mostly Cloudy
6:53 AM 63.0 °F 57.9 °F 84% 29.61 in 10.0 mi South 8.1 mph - N/A   Mostly Cloudy
7:14 AM 64.4 °F 57.2 °F 77% 29.62 in 10.0 mi South 9.2 mph 16.1 mph N/A   Mostly Cloudy
7:53 AM 66.0 °F 57.9 °F 75% 29.60 in 10.0 mi South 11.5 mph 19.6 mph N/A   Scattered Clouds
8:44 AM 66.2 °F 57.2 °F 73% 29.61 in 10.0 mi South 11.5 mph - N/A   Mostly Cloudy
8:53 AM 66.9 °F 57.9 °F 73% 29.60 in 10.0 mi South 12.7 mph 20.7 mph N/A   Scattered Clouds
9:53 AM 69.1 °F 57.9 °F 68% 29.60 in 10.0 mi South 9.2 mph 20.7 mph N/A   Clear
10:53 AM 72.0 °F 57.0 °F 59% 29.59 in 10.0 mi South 15.0 mph 24.2 mph N/A   Partly Cloudy
11:53 AM 73.9 °F 57.0 °F 55% 29.60 in 10.0 mi South 11.5 mph 24.2 mph N/A   Clear
12:53 PM 75.9 °F 55.0 °F 48% 29.59 in 10.0 mi South 17.3 mph 27.6 mph N/A   Partly Cloudy
1:53 PM 79.0 °F 55.0 °F 44% 29.57 in 10.0 mi South 16.1 mph 28.8 mph N/A   Clear
2:30 PM 75.2 °F 55.4 °F 50% 29.57 in 10.0 mi South 12.7 mph 24.2 mph 0.00 in Rain , Thunderstorm Light Rain
2:53 PM 68.0 °F 55.0 °F 63% 29.59 in 10.0 mi SSE 12.7 mph 24.2 mph 0.00 in Rain , Thunderstorm Light Thunderstorms and Rain
3:16 PM 73.4 °F 53.6 °F 50% 29.58 in 10.0 mi South 11.5 mph 18.4 mph 0.00 in   Partly Cloudy
3:53 PM 75.9 °F 57.0 °F 52% 29.54 in 10.0 mi South 18.4 mph 21.9 mph 0.00 in   Clear
4:38 PM 77.0 °F 48.2 °F 36% 29.55 in 10.0 mi South 15.0 mph 24.2 mph N/A Thunderstorm Clear
4:53 PM 75.9 °F 53.1 °F 45% 29.54 in 10.0 mi South 15.0 mph 26.5 mph N/A   Clear
5:53 PM 72.0 °F 48.0 °F 43% 29.57 in 10.0 mi South 8.1 mph - N/A   Clear
6:27 PM 66.2 °F 50.0 °F 56% 29.63 in 10.0 mi Variable 6.9 mph - N/A Thunderstorm Overcast
6:39 PM 60.8 °F 53.6 °F 77% 29.67 in 1.8 mi SSW 9.2 mph 20.7 mph 0.10 in Rain , Thunderstorm Heavy Thunderstorms and Rain
6:50 PM 60.8 °F 53.6 °F 77% 29.64 in 3.0 mi Calm Calm - 0.12 in Rain , Thunderstorm Light Thunderstorms and Rain
6:53 PM 60.1 °F 53.1 °F 78% 29.63 in 5.0 mi Calm Calm - 0.13 in Rain , Thunderstorm Light Thunderstorms and Rain
7:15 PM 57.2 °F 53.6 °F 88% 29.64 in 3.0 mi SSE 8.1 mph - 0.04 in Rain Rain
7:24 PM 59.0 °F 53.6 °F 82% 29.65 in 3.0 mi South 9.2 mph - 0.06 in Rain , Thunderstorm Rain
7:40 PM 57.2 °F 53.6 °F 88% 29.63 in 7.0 mi SSE 8.1 mph 16.1 mph 0.08 in Rain Rain
7:53 PM 57.9 °F 53.1 °F 84% 29.61 in 6.0 mi SE 8.1 mph 17.3 mph 0.12 in Rain Rain
8:53 PM 55.9 °F 54.0 °F 93% 29.61 in 10.0 mi Calm Calm - 0.01 in   Scattered Clouds
9:53 PM 55.9 °F 54.0 °F 93% 29.62 in 9.0 mi NE 4.6 mph - 0.10 in Rain Rain
10:53 PM 55.0 °F 53.1 °F 93% 29.61 in 10.0 mi Calm Calm - 0.00 in   Clear
11:53 PM 54.0 °F 53.1 °F 97% 29.61 in 10.0 mi Calm Calm - N/A   Clear